Weather History for Hastings, NE

Change the Weather History Date:

Saturday, March 30, 2013

  Actual Average Record
Temperature  
Mean Temperature 56 °F 45 °F  
Max Temperature 66 °F 57 °F 89 °F (1986)
Min Temperature 46 °F 33 °F 9 °F (1987)
Degree Days  
Heating Degree Days 9 20  
Month to date heating degree days 864 758  
Since 1 July heating degree days 5491 5388  
Cooling Degree Days 0 0  
Month to date cooling degree days 0 0  
Year to date cooling degree days 0 0  
Growing Degree Days 6 (Base 50)    
Moisture  
Dew Point 46 °F    
Average Humidity 66    
Maximum Humidity 100    
Minimum Humidity 32    
Precipitation  
Precipitation 0.04 in 0.10 in 0.73 in (2006)
Month to date precipitation 2.24 1.70  
Year to date precipitation 3.46 2.60  
Snow  
Snow 0.00 in 0.10 in 5.60 in (1985)
Month to date snowfall 7.9 5.0  
Since 1 July snowfall 31.7 27.4  
Snow Depth 0.00 in    
Sea Level Pressure  
Sea Level Pressure 29.97 in    
Wind  
Wind Speed 9 mph (NNE)    
Max Wind Speed 26 mph    
Max Gust Speed 31 mph    
Visibility 6 miles    
Events Fog , Rain , Thunderstorm    
T = Trace of Precipitation, MM = Missing Value Source: NWS Daily Summary

Daily Weather History Graph

Daily Weather History Graph

Search for Another Location

Airport:

Trip Planner

Search our weather history database for the weather conditions in past years. The results will help you decide how hot, cold, wet, or windy it might be!

Date:

Astronomy

Mar. 30, 2013 Rise Set
Actual Time 7:20 AM CDT 7:56 PM CDT
Civil Twilight 6:52 AM CDT 8:24 PM CDT
Nautical Twilight 6:20 AM CDT 8:56 PM CDT
Astronomical Twilight 5:46 AM CDT 9:30 PM CDT
Moon No Moon Rise 9:15 AM CDT (3/30)
Length of Visible Light 13h 31m
Length of Day
12h 36m
Waning Gibbous, 86% of the Moon is Illuminated
Mar 30
Waning Gibbous
Apr 2
Last Quarter
Apr 10
New
Apr 18
First Quarter
Apr 25
Full

Hourly Weather History & Observations

Time (CDT) Temp. Dew Point Humidity Pressure Visibility Wind Dir Wind Speed Gust Speed Precip Events Conditions
12:24 AM 53.6 °F 51.8 °F 94% 30.00 in 10.0 mi SSE 9.2 mph - 0.00 in Thunderstorm Overcast
12:37 AM 53.6 °F 50.0 °F 88% 30.00 in 10.0 mi ESE 3.5 mph - 0.00 in   Overcast
12:53 AM 54.0 °F 50.0 °F 86% 29.99 in 10.0 mi Calm Calm - 0.00 in   Mostly Cloudy
1:53 AM 50.0 °F 48.9 °F 96% 29.97 in 7.0 mi East 5.8 mph - N/A   Mostly Cloudy
2:53 AM 51.1 °F 48.9 °F 92% 29.95 in 8.0 mi SE 8.1 mph - N/A   Clear
3:46 AM 48.2 °F 48.2 °F 100% 29.95 in 3.0 mi SE 9.2 mph - N/A   Partly Cloudy
3:53 AM 48.9 °F 48.0 °F 97% 29.93 in 3.0 mi SSE 8.1 mph - N/A   Scattered Clouds
3:56 AM 48.2 °F 48.2 °F 100% 29.94 in 2.5 mi SSE 8.1 mph - N/A   Mostly Cloudy
4:18 AM 50.0 °F 48.2 °F 94% 29.93 in 3.0 mi SSE 6.9 mph - N/A   Mostly Cloudy
4:53 AM 48.9 °F 48.0 °F 97% 29.91 in 4.0 mi South 6.9 mph - N/A   Partly Cloudy
5:10 AM 48.2 °F 48.2 °F 100% 29.91 in 2.5 mi South 5.8 mph - N/A   Partly Cloudy
5:30 AM 48.2 °F 46.4 °F 93% 29.90 in 1.8 mi South 6.9 mph - 0.01 in   Mostly Cloudy
5:39 AM 46.4 °F 46.4 °F 100% 29.90 in 0.2 mi Calm Calm - 0.01 in Fog Fog
5:53 AM 46.9 °F 46.9 °F 100% 29.90 in 0.2 mi Calm Calm - 0.01 in Fog Fog
6:53 AM 46.9 °F 46.0 °F 97% 29.93 in 0.2 mi NW 5.8 mph - N/A Fog Fog
7:53 AM 48.0 °F 48.0 °F 100% 29.96 in 0.2 mi ENE 3.5 mph - N/A Fog Fog
8:53 AM 48.9 °F 48.9 °F 100% 29.97 in 0.2 mi North 3.5 mph - N/A Fog Fog
9:53 AM 50.0 °F 48.9 °F 96% 29.99 in 0.2 mi North 9.2 mph - N/A Fog Fog
10:21 AM 51.8 °F 50.0 °F 94% 29.98 in 1.8 mi NNE 9.2 mph - N/A   Overcast
10:29 AM 51.8 °F 50.0 °F 94% 29.98 in 2.5 mi NNE 9.2 mph - N/A   Overcast
10:38 AM 53.6 °F 51.8 °F 94% 29.98 in 4.0 mi North 11.5 mph - N/A   Mostly Cloudy
10:53 AM 55.0 °F 51.1 °F 86% 29.98 in 7.0 mi North 11.5 mph - N/A   Scattered Clouds
11:07 AM 55.4 °F 48.2 °F 77% 29.99 in 8.0 mi North 10.4 mph - N/A   Mostly Cloudy
11:46 AM 57.2 °F 48.2 °F 72% 29.99 in 10.0 mi NNE 10.4 mph - N/A   Scattered Clouds
11:53 AM 57.0 °F 50.0 °F 77% 29.99 in 10.0 mi North 11.5 mph - N/A   Scattered Clouds
12:53 PM 61.0 °F 46.0 °F 58% 29.97 in 10.0 mi NNE 12.7 mph - N/A   Clear
1:53 PM 64.0 °F 39.9 °F 41% 29.96 in 10.0 mi NNE 10.4 mph - N/A   Clear
2:53 PM 64.9 °F 37.9 °F 37% 29.95 in 10.0 mi North 12.7 mph 20.7 mph N/A   Clear
3:53 PM 66.0 °F 36.0 °F 33% 29.94 in 10.0 mi NNE 9.2 mph - N/A   Mostly Cloudy
4:53 PM 64.0 °F 35.1 °F 34% 29.95 in 10.0 mi North 10.4 mph - N/A   Mostly Cloudy
5:53 PM 61.0 °F 36.0 °F 39% 29.94 in 10.0 mi North 13.8 mph - N/A   Overcast
6:53 PM 57.9 °F 39.0 °F 49% 29.96 in 10.0 mi NNW 9.2 mph - N/A   Overcast
7:53 PM 51.1 °F 43.0 °F 74% 30.00 in 10.0 mi North 20.7 mph 31.1 mph 0.00 in Rain Light Rain
8:53 PM 48.9 °F 43.0 °F 80% 30.01 in 10.0 mi WNW 9.2 mph - 0.02 in Rain Light Rain
9:53 PM 48.9 °F 43.0 °F 80% 30.03 in 10.0 mi WNW 10.4 mph - 0.02 in Rain Light Rain
10:53 PM 46.9 °F 44.1 °F 90% 30.05 in 10.0 mi WNW 6.9 mph - 0.00 in   Overcast
11:53 PM 48.0 °F 43.0 °F 83% 30.03 in 10.0 mi WNW 10.4 mph - N/A   Overcast